Find OTB

NORAD ID: 44341 Int'l Des: 2019-036 Owner: GACO Country: US operational
LEOCIRCULAR

Live-Position

3D-Globus wird geladen...

Über OTB

Beschreibung wird geladen...

Nächste Überflüge

Passes for default location (London). Set your location on the main map for personalized predictions.

Höhenverlauf

Loading altitude history...

Zweizeiliger Elementsatz

1 44341U 19036C 26132.30250067 .00000844 00000-0 13611-3 0 9993
2 44341 23.9954 207.6411 0010777 332.4186 27.5733 14.57144152366130
Epoch: 12. Mai 2026 • Age: 6 hours

Aktueller Status

Höhe 704.4 km
Geschwindigkeit 7.51 km/s
Subsatellitenpunkt -23.68°S, 33.53°E
Startdatum 25. Juni 2019
Alter 6.8 years
Typ other

Technische Details

Klassifizierung Payload
Masse 100.00 kg
Trockenmasse 100.00 kg
Gesamtmasse 100.00 kg
Länge 1.00 m
Durchmesser 0.60 m
Spannweite 3.00 m
Form Box + 4 Pan
Hersteller GACO
Bus-Typ SSTL-150
Phasenstatus In Orbit
Besitzer/Staat GACO/US

Most Searched